When you browse on this site, cookies collect data to enhance your experience and personalize the content and advertising you see.
Visit our Privacy Policy to learn more. By continuing to use the site, you agree to this use of cookies and data.
  • In Sweden
  • List of Countries
  • For 7 days
  • Water Temperature
  • Satellite Maps
  • Weather Map
  • Weather Widgets
  • user-avatar
    Login

    Hourly Weather Bünyan

    Today, 21 November, Wednesday

    Time Temperature Precipitation Wind Pressure Humidity
    00:00 +7°C° 0 mm 1 mps 649 mmHg 69%
    01:00 +7°C° 0 mm 1 mps 649 mmHg 68%
    02:00 +7°C° 0 mm 1 mps 649 mmHg 68%
    03:00 +7°C° 0 mm 1 mps 648 mmHg 68%
    04:00 +7°C° 0 mm 1 mps 648 mmHg 67%
    05:00 +7°C° 0 mm 1 mps 648 mmHg 67%
    06:00 +8°C° 0 mm 1 mps 648 mmHg 63%
    07:00 +8°C° 0 mm 1 mps 649 mmHg 60%
    08:00 +9°C° 0 mm 1 mps 649 mmHg 56%
    09:00 +11°C° 0 mm 1 mps 649 mmHg 51%
    10:00 +12°C° 0 mm 2 mps 649 mmHg 46%
    11:00 +13°C° 0 mm 2 mps 649 mmHg 41%
    12:00 +12°C° 0.1 mm 3 mps 649 mmHg 42%
    13:00 +12°C° 0.1 mm 3 mps 648 mmHg 43%
    14:00 +12°C° 0.1 mm 3 mps 648 mmHg 45%
    15:00 +11°C° 0.1 mm 3 mps 647 mmHg 49%
    16:00 +10°C° 0.1 mm 2 mps 647 mmHg 53%
    17:00 +10°C° 0.1 mm 1 mps 647 mmHg 57%
    18:00 +10°C° 0.1 mm 1 mps 646 mmHg 59%
    19:00 +9°C° 0.1 mm 1 mps 646 mmHg 60%
    20:00 +9°C° 0.1 mm 1 mps 646 mmHg 62%
    21:00 +9°C° 0.2 mm 1 mps 646 mmHg 64%
    22:00 +8°C° 0.2 mm 1 mps 646 mmHg 66%
    23:00 +8°C° 0.2 mm 1 mps 646 mmHg 68%

    Tomorrow, 22 November, Thursday

    Time Temperature Precipitation Wind Pressure Humidity
    00:00 +7°C° 0.6 mm 2 mps 646 mmHg 71%
    01:00 +7°C° 0.6 mm 2 mps 646 mmHg 73%
    02:00 +6°C° 0.6 mm 2 mps 645 mmHg 76%
    03:00 +6°C° 0.3 mm 2 mps 645 mmHg 78%
    04:00 +6°C° 0.3 mm 2 mps 645 mmHg 80%
    05:00 +6°C° 0.3 mm 1 mps 645 mmHg 81%
    06:00 +7°C° 0.1 mm 1 mps 645 mmHg 79%
    07:00 +6°C° 0.1 mm 2 mps 645 mmHg 77%
    08:00 +7°C° 0.1 mm 2 mps 646 mmHg 75%
    09:00 +8°C° 0.1 mm 2 mps 646 mmHg 71%
    10:00 +9°C° 0.1 mm 2 mps 646 mmHg 67%
    11:00 +10°C° 0.1 mm 2 mps 646 mmHg 63%
    12:00 +10°C° 0.1 mm 2 mps 646 mmHg 61%
    13:00 +12°C° 0.1 mm 2 mps 645 mmHg 58%
    14:00 +12°C° 0.1 mm 2 mps 645 mmHg 56%
    15:00 +10°C° 0.1 mm 2 mps 645 mmHg 61%
    16:00 +10°C° 0.1 mm 1 mps 645 mmHg 65%
    17:00 +9°C° 0.1 mm 1 mps 644 mmHg 69%
    18:00 +8°C° 0.1 mm 1 mps 645 mmHg 72%
    19:00 +7°C° 0.1 mm 0 mps 645 mmHg 74%
    20:00 +6°C° 0.1 mm 0 mps 645 mmHg 77%
    21:00 +6°C° 0.1 mm 0 mps 645 mmHg 79%
    22:00 +6°C° 0.1 mm 0 mps 645 mmHg 81%
    23:00 +5°C° 0.1 mm 0 mps 645 mmHg 83%

    Day after tomorrow, 23 November, Friday

    Time Temperature Precipitation Wind Pressure Humidity
    00:00 +5°C° 0.1 mm 0 mps 645 mmHg 84%
    01:00 +5°C° 0.1 mm 0 mps 645 mmHg 86%
    02:00 +5°C° 0.1 mm 0 mps 645 mmHg 87%
    03:00 +4°C° 0.1 mm 0 mps 645 mmHg 88%
    04:00 +4°C° 0.1 mm 0 mps 645 mmHg 89%
    05:00 +5°C° 0.1 mm 1 mps 645 mmHg 89%
    06:00 +6°C° 0.2 mm 1 mps 646 mmHg 86%
    07:00 +6°C° 0.2 mm 1 mps 646 mmHg 83%
    08:00 +7°C° 0.2 mm 1 mps 647 mmHg 80%
    09:00 +8°C° 0.2 mm 1 mps 647 mmHg 75%
    10:00 +8°C° 0.2 mm 2 mps 647 mmHg 70%
    11:00 +9°C° 0.2 mm 2 mps 648 mmHg 66%
    12:00 +9°C° 0.2 mm 3 mps 648 mmHg 65%
    13:00 +9°C° 0.2 mm 3 mps 647 mmHg 64%
    14:00 +10°C° 0.2 mm 3 mps 647 mmHg 63%
    15:00 +8°C° 0.3 mm 4 mps 647 mmHg 67%
    16:00 +7°C° 0.3 mm 4 mps 647 mmHg 71%
    17:00 +6°C° 0.3 mm 4 mps 647 mmHg 75%
    18:00 +5°C° 0.2 mm 4 mps 648 mmHg 77%
    19:00 +5°C° 0.2 mm 4 mps 648 mmHg 79%
    20:00 +4°C° 0.2 mm 3 mps 648 mmHg 81%
    21:00 +3°C° 0 mm 3 mps 648 mmHg 82%
    22:00 +3°C° 0 mm 3 mps 648 mmHg 83%
    23:00 +2°C° 0 mm 3 mps 648 mmHg 84%

    24 November, Saturday

    Time Temperature Precipitation Wind Pressure Humidity
    00:00 +2°C° 0 mm 3 mps 648 mmHg 85%
    01:00 +2°C° 0 mm 3 mps 648 mmHg 86%
    02:00 +1°C° 0 mm 3 mps 648 mmHg 87%
    03:00 +1°C° 0 mm 3 mps 648 mmHg 87%
    04:00 +1°C° 0 mm 3 mps 648 mmHg 88%
    05:00 +2°C° 0 mm 2 mps 649 mmHg 88%
    06:00 +2°C° 0.1 mm 2 mps 649 mmHg 86%
    07:00 +2°C° 0.1 mm 2 mps 649 mmHg 84%
    08:00 +3°C° 0.1 mm 2 mps 650 mmHg 82%
    09:00 +4°C° 0.3 mm 2 mps 649 mmHg 79%
    10:00 +4°C° 0.3 mm 2 mps 649 mmHg 76%
    11:00 +5°C° 0.3 mm 2 mps 649 mmHg 73%
    12:00 +6°C° 0.2 mm 2 mps 649 mmHg 71%
    13:00 +7°C° 0.2 mm 2 mps 649 mmHg 70%
    14:00 +8°C° 0.2 mm 1 mps 649 mmHg 68%
    15:00 +7°C° 0.1 mm 1 mps 649 mmHg 72%
    16:00 +7°C° 0.1 mm 1 mps 648 mmHg 75%
    17:00 +6°C° 0.1 mm 1 mps 648 mmHg 78%
    18:00 +6°C° 0 mm 1 mps 648 mmHg 80%
    19:00 +5°C° 0 mm 1 mps 648 mmHg 82%
    20:00 +5°C° 0 mm 1 mps 648 mmHg 83%
    21:00 +4°C° 0 mm 1 mps 648 mmHg 85%
    22:00 +3°C° 0 mm 0 mps 648 mmHg 86%
    23:00 +3°C° 0 mm 0 mps 648 mmHg 87%

    25 November, Sunday

    Time Temperature Precipitation Wind Pressure Humidity
    00:00 +3°C° 0.1 mm 0 mps 648 mmHg 87%
    01:00 +3°C° 0.1 mm 0 mps 648 mmHg 88%
    02:00 +3°C° 0.1 mm 0 mps 648 mmHg 88%
    03:00 +3°C° 0.1 mm 0 mps 648 mmHg 89%
    04:00 +2°C° 0.1 mm 0 mps 648 mmHg 89%
    05:00 +2°C° 0.1 mm 0 mps 647 mmHg 90%
    06:00 +3°C° 0.1 mm 0 mps 648 mmHg 87%
    07:00 +4°C° 0.1 mm 0 mps 648 mmHg 85%
    08:00 +5°C° 0.1 mm 0 mps 649 mmHg 82%
    09:00 +7°C° 0.1 mm 1 mps 649 mmHg 78%
    10:00 +8°C° 0.1 mm 1 mps 649 mmHg 74%
    11:00 +9°C° 0.1 mm 1 mps 648 mmHg 70%
    12:00 +9°C° 0 mm 1 mps 648 mmHg 67%
    13:00 +9°C° 0 mm 1 mps 648 mmHg 65%
    14:00 +9°C° 0 mm 2 mps 647 mmHg 63%
    15:00 +9°C° 0 mm 1 mps 647 mmHg 66%
    16:00 +8°C° 0 mm 1 mps 647 mmHg 69%
    17:00 +7°C° 0 mm 1 mps 647 mmHg 72%
    18:00 +6°C° 0 mm 1 mps 647 mmHg 73%
    19:00 +5°C° 0 mm 1 mps 647 mmHg 75%
    20:00 +5°C° 0 mm 1 mps 647 mmHg 77%
    21:00 +5°C° 0 mm 1 mps 647 mmHg 78%
    22:00 +4°C° 0 mm 1 mps 647 mmHg 79%
    23:00 +4°C° 0 mm 1 mps 647 mmHg 80%

    26 November, Monday

    Time Temperature Precipitation Wind Pressure Humidity
    00:00 +4°C° 0 mm 1 mps 646 mmHg 81%
    01:00 +3°C° 0 mm 1 mps 646 mmHg 82%
    02:00 +3°C° 0 mm 1 mps 646 mmHg 83%
    03:00 +3°C° 0 mm 1 mps 646 mmHg 83%
    04:00 +2°C° 0 mm 1 mps 646 mmHg 83%
    05:00 +2°C° 0 mm 1 mps 646 mmHg 83%
    06:00 +3°C° 0 mm 1 mps 647 mmHg 78%
    07:00 +4°C° 0 mm 1 mps 647 mmHg 73%
    08:00 +5°C° 0 mm 1 mps 648 mmHg 69%
    09:00 +6°C° 0 mm 1 mps 648 mmHg 60%
    10:00 +7°C° 0 mm 2 mps 648 mmHg 52%
    11:00 +8°C° 0 mm 2 mps 648 mmHg 44%
    12:00 +9°C° 0 mm 2 mps 647 mmHg 42%
    13:00 +9°C° 0 mm 2 mps 647 mmHg 40%
    14:00 +9°C° 0 mm 3 mps 647 mmHg 37%
    15:00 +8°C° 0 mm 2 mps 647 mmHg 43%
    16:00 +7°C° 0 mm 2 mps 646 mmHg 48%
    17:00 +6°C° 0 mm 2 mps 646 mmHg 54%
    18:00 +5°C° 0 mm 2 mps 646 mmHg 59%
    19:00 +5°C° 0 mm 2 mps 646 mmHg 63%
    20:00 +5°C° 0 mm 2 mps 646 mmHg 68%
    21:00 +4°C° 0 mm 2 mps 646 mmHg 72%
    22:00 +4°C° 0 mm 2 mps 646 mmHg 76%
    23:00 +4°C° 0 mm 2 mps 646 mmHg 80%
    Show more